Tracking 28895 objects as of 28-May-2024
HD Live streaming from Space Station
objects crossing your sky now

SHIJIAN-15 (SJ-15)

Track SHIJIAN-15 (SJ-15) now!
10-day predictions
SHIJIAN-15 (SJ-15) is classified as:


NORAD ID: 39210
Int'l Code: 2013-037C
Perigee: 665.5 km
Apogee: 675.2 km
Inclination: 98.1 °
Period: 98.0 minutes
Semi major axis: 7041 km
RCS: Unknown
Launch date: July 19, 2013
Source: People's Republic of China (PRC)
Launch site: Taiyaun Space Center, China (TSC)

SHIJIAN 15 is a technology satellite, precise mission unknown at present.
Your satellite tracking list
Your tracking list is empty




NASA's NSSDC Master Catalog

Two Line Element Set (TLE):
1 39210U 13037C   24149.23769874  .00001226  00000-0  21588-3 0  9993
2 39210  98.0781 146.4641 0006942  25.7387 334.4163 14.69330540584106
Source of the keplerian elements: AFSPC